Time,TemperatureF,DewpointF,PressureIn,WindDirection,WindDirectionDegrees,WindSpeedMPH,WindSpeedGustMPH,Humidity,HourlyPrecipIn,Conditions,Clouds,dailyrainin,SoftwareType,DateUTC
2013-03-28 00:00:00,54.7,51.2,29.70,ESE,113,1.8,4.3,88,0.00,,,0.00,WUHU216HW,2013-03-28 07:00:00,
2013-03-28 00:05:00,54.7,51.2,29.70,NNE,23,1.6,3.4,88,0.00,,,0.00,WUHU216HW,2013-03-28 07:05:00,
2013-03-28 00:10:00,54.7,51.2,29.70,ENE,68,1.1,4.3,88,0.00,,,0.00,WUHU216HW,2013-03-28 07:10:00,
2013-03-28 00:15:00,54.7,51.2,29.70,ESE,113,2.5,4.3,88,0.00,,,0.00,WUHU216HW,2013-03-28 07:15:00,
2013-03-28 00:20:00,54.7,51.2,29.70,SE,135,2.7,3.1,88,0.00,,,0.00,WUHU216HW,2013-03-28 07:20:00,
2013-03-28 00:25:00,54.7,51.2,29.70,ESE,113,1.1,2.7,88,0.00,,,0.00,WUHU216HW,2013-03-28 07:25:00,
2013-03-28 00:30:00,54.9,51.4,29.70,SE,135,0.0,2.7,88,0.00,,,0.00,WUHU216HW,2013-03-28 07:30:00,
2013-03-28 00:35:00,54.9,51.0,29.70,North,0,0.0,1.6,87,0.00,,,0.00,WUHU216HW,2013-03-28 07:35:00,
2013-03-28 00:40:00,54.9,51.4,29.70,SE,135,1.1,3.1,88,0.00,,,0.00,WUHU216HW,2013-03-28 07:40:00,
2013-03-28 00:45:00,54.9,51.0,29.70,SSE,158,0.7,3.1,87,0.00,,,0.00,WUHU216HW,2013-03-28 07:45:00,
2013-03-28 00:50:00,54.9,51.0,29.70,SSW,203,0.0,2.0,87,0.00,,,0.00,WUHU216HW,2013-03-28 07:50:00,
2013-03-28 00:55:00,55.1,51.2,29.70,ESE,113,0.2,1.1,87,0.00,,,0.00,WUHU216HW,2013-03-28 07:55:00,
2013-03-28 01:00:00,55.1,51.2,29.70,North,0,1.1,1.3,87,0.00,,,0.00,WUHU216HW,2013-03-28 08:00:00,
2013-03-28 01:05:00,54.9,51.0,29.70,NNE,23,1.1,2.2,87,0.00,,,0.00,WUHU216HW,2013-03-28 08:05:00,
2013-03-28 01:10:00,54.7,50.9,29.70,NNE,23,1.1,2.2,87,0.00,,,0.00,WUHU216HW,2013-03-28 08:10:00,
2013-03-28 01:15:00,54.7,50.9,29.70,NNW,338,0.0,2.0,87,0.00,,,0.00,WUHU216HW,2013-03-28 08:15:00,
2013-03-28 01:20:00,54.7,51.2,29.70,NNE,23,2.0,2.0,88,0.00,,,0.00,WUHU216HW,2013-03-28 08:20:00,
2013-03-28 01:25:00,54.5,51.0,29.70,ENE,68,1.1,2.5,88,0.00,,,0.00,WUHU216HW,2013-03-28 08:25:00,
2013-03-28 01:30:00,54.4,50.9,29.70,NNE,23,1.3,3.4,88,0.00,,,0.00,WUHU216HW,2013-03-28 08:30:00,
2013-03-28 01:35:00,54.4,50.9,29.70,NNE,23,1.6,3.4,88,0.00,,,0.00,WUHU216HW,2013-03-28 08:35:00,
2013-03-28 01:40:00,54.2,50.7,29.70,NE,45,1.1,2.7,88,0.00,,,0.00,WUHU216HW,2013-03-28 08:40:00,
2013-03-28 01:45:00,54.0,50.5,29.70,NNE,23,4.7,4.7,88,0.00,,,0.00,WUHU216HW,2013-03-28 08:45:00,
2013-03-28 01:50:00,53.6,50.5,29.69,NE,45,2.5,4.7,89,0.00,,,0.00,WUHU216HW,2013-03-28 08:50:00,
2013-03-28 01:55:00,53.6,50.5,29.70,NE,45,3.6,4.7,89,0.00,,,0.00,WUHU216HW,2013-03-28 08:55:00,
2013-03-28 02:00:00,53.5,50.3,29.69,North,0,1.8,4.3,89,0.00,,,0.00,WUHU216HW,2013-03-28 09:00:00,
2013-03-28 02:05:00,53.3,50.1,29.69,NNE,23,1.1,4.3,89,0.00,,,0.00,WUHU216HW,2013-03-28 09:05:00,
2013-03-28 02:10:00,53.1,50.2,29.69,NNE,23,1.1,3.8,90,0.00,,,0.00,WUHU216HW,2013-03-28 09:10:00,
2013-03-28 02:15:00,52.9,50.0,29.69,NNE,23,2.2,3.1,90,0.00,,,0.00,WUHU216HW,2013-03-28 09:15:00,
2013-03-28 02:20:00,52.6,49.7,29.69,NNE,23,2.0,3.1,90,0.00,,,0.00,WUHU216HW,2013-03-28 09:20:00,
2013-03-28 02:25:00,52.4,49.5,29.69,NE,45,2.0,2.5,90,0.00,,,0.00,WUHU216HW,2013-03-28 09:25:00,
2013-03-28 02:30:00,52.4,49.5,29.69,NE,45,1.6,2.5,90,0.00,,,0.00,WUHU216HW,2013-03-28 09:30:00,
2013-03-28 02:35:00,52.2,49.6,29.69,NE,45,1.8,2.5,91,0.00,,,0.00,WUHU216HW,2013-03-28 09:35:00,
2013-03-28 02:40:00,52.2,49.9,29.69,ENE,68,2.0,2.5,92,0.00,,,0.00,WUHU216HW,2013-03-28 09:40:00,
2013-03-28 02:45:00,52.0,49.7,29.69,ENE,68,2.5,3.6,92,0.00,,,0.00,WUHU216HW,2013-03-28 09:45:00,
2013-03-28 02:50:00,52.0,49.7,29.69,East,90,2.9,3.6,92,0.00,,,0.00,WUHU216HW,2013-03-28 09:50:00,
2013-03-28 02:55:00,51.7,49.1,29.69,ENE,68,2.0,3.4,91,0.00,,,0.00,WUHU216HW,2013-03-28 09:55:00,
2013-03-28 03:00:00,51.5,48.9,29.69,ENE,68,1.6,3.4,91,0.00,,,0.00,WUHU216HW,2013-03-28 10:00:00,
2013-03-28 03:05:00,51.5,49.1,29.68,East,90,1.3,2.7,92,0.00,,,0.00,WUHU216HW,2013-03-28 10:05:00,
2013-03-28 03:10:00,51.3,49.0,29.69,ENE,68,0.4,2.7,92,0.00,,,0.00,WUHU216HW,2013-03-28 10:10:00,
2013-03-28 03:15:00,51.1,48.8,29.68,ENE,68,2.0,2.7,92,0.00,,,0.00,WUHU216HW,2013-03-28 10:15:00,
2013-03-28 03:20:00,50.9,48.6,29.68,ESE,113,2.5,2.5,92,0.00,,,0.00,WUHU216HW,2013-03-28 10:20:00,
2013-03-28 03:25:00,50.9,48.6,29.69,SE,135,0.4,2.5,92,0.00,,,0.00,WUHU216HW,2013-03-28 10:25:00,
2013-03-28 03:30:00,50.9,48.6,29.68,SE,135,0.7,2.5,92,0.00,,,0.00,WUHU216HW,2013-03-28 10:30:00,
2013-03-28 03:35:00,50.9,48.6,29.68,ESE,113,1.3,2.2,92,0.00,,,0.00,WUHU216HW,2013-03-28 10:35:00,
2013-03-28 03:40:00,50.9,48.6,29.68,East,90,0.7,2.0,92,0.00,,,0.00,WUHU216HW,2013-03-28 10:40:00,
2013-03-28 03:45:00,50.8,48.4,29.68,ENE,68,0.9,1.6,92,0.00,,,0.00,WUHU216HW,2013-03-28 10:45:00,
2013-03-28 03:50:00,50.8,48.4,29.68,ENE,68,0.0,1.3,92,0.00,,,0.00,WUHU216HW,2013-03-28 10:50:00,
2013-03-28 03:55:00,50.8,48.4,29.68,ENE,68,0.7,1.3,92,0.00,,,0.00,WUHU216HW,2013-03-28 10:55:00,
2013-03-28 04:00:00,50.8,48.4,29.69,SE,135,1.8,1.8,92,0.00,,,0.00,WUHU216HW,2013-03-28 11:00:00,
2013-03-28 04:05:00,50.8,48.4,29.69,SE,135,1.1,1.8,92,0.00,,,0.00,WUHU216HW,2013-03-28 11:05:00,
2013-03-28 04:10:00,50.9,48.6,29.69,East,90,0.7,1.8,92,0.00,,,0.00,WUHU216HW,2013-03-28 11:10:00,
2013-03-28 04:15:00,50.9,48.6,29.68,ENE,68,1.3,1.8,92,0.00,,,0.00,WUHU216HW,2013-03-28 11:15:00,
2013-03-28 04:20:00,50.9,49.0,29.68,NNE,23,1.8,2.0,93,0.00,,,0.00,WUHU216HW,2013-03-28 11:20:00,
2013-03-28 04:25:00,50.9,49.0,29.69,NNE,23,1.8,2.0,93,0.00,,,0.00,WUHU216HW,2013-03-28 11:25:00,
2013-03-28 04:30:00,50.8,48.8,29.69,NNE,23,1.1,2.5,93,0.00,,,0.00,WUHU216HW,2013-03-28 11:30:00,
2013-03-28 04:35:00,50.8,48.4,29.69,NNE,23,1.8,2.5,92,0.00,,,0.00,WUHU216HW,2013-03-28 11:35:00,
2013-03-28 04:40:00,50.8,48.4,29.69,East,90,0.9,2.2,92,0.00,,,0.00,WUHU216HW,2013-03-28 11:40:00,
2013-03-28 04:45:00,50.8,48.4,29.69,NE,45,1.1,2.5,92,0.00,,,0.00,WUHU216HW,2013-03-28 11:45:00,
2013-03-28 04:50:00,50.8,48.8,29.69,ENE,68,1.1,3.4,93,0.00,,,0.00,WUHU216HW,2013-03-28 11:50:00,
2013-03-28 04:55:00,50.6,48.6,29.69,East,90,1.8,3.4,93,0.00,,,0.00,WUHU216HW,2013-03-28 11:55:00,
2013-03-28 05:00:00,50.4,48.4,29.69,ENE,68,1.6,2.7,93,0.00,,,0.00,WUHU216HW,2013-03-28 12:00:00,
2013-03-28 05:05:00,50.2,48.3,29.69,ENE,68,1.6,2.5,93,0.00,,,0.00,WUHU216HW,2013-03-28 12:05:00,
2013-03-28 05:10:00,50.0,48.3,29.69,ENE,68,4.0,4.0,94,0.00,,,0.00,WUHU216HW,2013-03-28 12:10:00,
2013-03-28 05:15:00,49.7,48.0,29.68,NNE,23,2.2,4.0,94,0.00,,,0.00,WUHU216HW,2013-03-28 12:15:00,
2013-03-28 05:20:00,49.5,47.8,29.69,NNE,23,1.8,4.7,94,0.00,,,0.00,WUHU216HW,2013-03-28 12:20:00,
2013-03-28 05:25:00,49.5,47.8,29.68,North,0,2.5,4.7,94,0.00,,,0.00,WUHU216HW,2013-03-28 12:25:00,
2013-03-28 05:30:00,49.3,47.6,29.68,NNE,23,4.3,4.5,94,0.00,,,0.00,WUHU216HW,2013-03-28 12:30:00,
2013-03-28 05:35:00,49.5,47.8,29.68,NE,45,4.0,4.7,94,0.00,,,0.00,WUHU216HW,2013-03-28 12:35:00,
2013-03-28 05:40:00,49.3,47.6,29.68,East,90,2.0,4.7,94,0.00,,,0.00,WUHU216HW,2013-03-28 12:40:00,
2013-03-28 05:45:00,49.3,47.6,29.68,North,0,3.4,4.0,94,0.00,,,0.00,WUHU216HW,2013-03-28 12:45:00,
2013-03-28 05:50:00,49.3,47.6,29.68,ENE,68,3.8,4.5,94,0.00,,,0.00,WUHU216HW,2013-03-28 12:50:00,
2013-03-28 05:55:00,49.3,47.6,29.68,NE,45,0.9,4.5,94,0.00,,,0.00,WUHU216HW,2013-03-28 12:55:00,
2013-03-28 06:00:00,49.5,47.8,29.69,ENE,68,2.5,4.0,94,0.00,,,0.00,WUHU216HW,2013-03-28 13:00:00,
2013-03-28 06:05:00,49.7,48.0,29.68,ENE,68,4.0,4.0,94,0.00,,,0.00,WUHU216HW,2013-03-28 13:05:00,
2013-03-28 06:10:00,49.7,48.0,29.68,East,90,2.5,4.0,94,0.00,,,0.00,WUHU216HW,2013-03-28 13:10:00,
2013-03-28 06:15:00,49.7,48.0,29.69,ENE,68,2.2,4.0,94,0.00,,,0.00,WUHU216HW,2013-03-28 13:15:00,
2013-03-28 06:20:00,49.7,47.7,29.69,NE,45,2.5,3.6,93,0.00,,,0.00,WUHU216HW,2013-03-28 13:20:00,
2013-03-28 06:25:00,49.9,47.9,29.70,NE,45,0.9,2.5,93,0.00,,,0.00,WUHU216HW,2013-03-28 13:25:00,
2013-03-28 06:30:00,50.0,48.1,29.70,ENE,68,1.1,2.5,93,0.00,,,0.00,WUHU216HW,2013-03-28 13:30:00,
2013-03-28 06:35:00,50.2,48.3,29.70,NE,45,1.3,2.2,93,0.00,,,0.00,WUHU216HW,2013-03-28 13:35:00,
2013-03-28 06:40:00,50.2,47.9,29.70,NE,45,2.5,2.9,92,0.00,,,0.00,WUHU216HW,2013-03-28 13:40:00,
2013-03-28 06:45:00,50.4,48.1,29.70,NE,45,3.1,4.7,92,0.00,,,0.00,WUHU216HW,2013-03-28 13:45:00,
2013-03-28 06:50:00,50.8,48.4,29.70,ENE,68,0.4,4.7,92,0.00,,,0.00,WUHU216HW,2013-03-28 13:50:00,
2013-03-28 06:55:00,50.9,48.6,29.70,NNE,23,3.6,3.6,92,0.00,,,0.00,WUHU216HW,2013-03-28 13:55:00,
2013-03-28 07:00:00,51.3,49.0,29.70,NNE,23,0.7,3.6,92,0.00,,,0.00,WUHU216HW,2013-03-28 14:00:00,
2013-03-28 07:05:00,51.5,49.1,29.71,ENE,68,1.1,3.6,92,0.00,,,0.00,WUHU216HW,2013-03-28 14:05:00,
2013-03-28 07:10:00,51.7,49.3,29.71,NE,45,0.4,2.9,92,0.00,,,0.00,WUHU216HW,2013-03-28 14:10:00,
2013-03-28 07:15:00,51.8,49.5,29.71,NE,45,1.1,2.0,92,0.00,,,0.00,WUHU216HW,2013-03-28 14:15:00,
2013-03-28 07:20:00,52.0,49.7,29.71,NE,45,1.1,2.2,92,0.00,,,0.00,WUHU216HW,2013-03-28 14:20:00,
2013-03-28 07:25:00,52.2,49.9,29.71,ENE,68,1.3,2.2,92,0.00,,,0.00,WUHU216HW,2013-03-28 14:25:00,
2013-03-28 07:30:00,52.4,50.0,29.71,ENE,68,0.9,2.0,92,0.00,,,0.00,WUHU216HW,2013-03-28 14:30:00,
2013-03-28 07:35:00,52.6,50.2,29.71,NE,45,0.0,1.6,92,0.00,,,0.00,WUHU216HW,2013-03-28 14:35:00,
2013-03-28 07:40:00,52.7,50.8,29.72,East,90,0.7,1.6,93,0.00,,,0.00,WUHU216HW,2013-03-28 14:40:00,
2013-03-28 07:45:00,52.9,50.6,29.72,NE,45,1.6,1.8,92,0.00,,,0.00,WUHU216HW,2013-03-28 14:45:00,
2013-03-28 07:50:00,53.1,50.8,29.72,ENE,68,0.9,1.8,92,0.00,,,0.00,WUHU216HW,2013-03-28 14:50:00,
2013-03-28 07:55:00,53.3,50.9,29.72,ENE,68,0.7,1.8,92,0.00,,,0.00,WUHU216HW,2013-03-28 14:55:00,
2013-03-28 08:00:00,53.3,50.9,29.72,NE,45,0.0,1.8,92,0.00,,,0.00,WUHU216HW,2013-03-28 15:00:00,
2013-03-28 08:05:00,53.5,51.1,29.72,ENE,68,0.4,1.1,92,0.00,,,0.00,WUHU216HW,2013-03-28 15:05:00,
2013-03-28 08:10:00,53.6,51.3,29.73,NNE,23,0.0,1.1,92,0.00,,,0.00,WUHU216HW,2013-03-28 15:10:00,
2013-03-28 08:15:00,53.8,51.5,29.73,ENE,68,0.7,1.3,92,0.00,,,0.00,WUHU216HW,2013-03-28 15:15:00,
2013-03-28 08:20:00,54.0,51.4,29.73,ENE,68,1.1,2.5,91,0.00,,,0.00,WUHU216HW,2013-03-28 15:20:00,
2013-03-28 08:25:00,54.4,51.8,29.73,NW,315,0.2,2.5,91,0.00,,,0.00,WUHU216HW,2013-03-28 15:25:00,
2013-03-28 08:30:00,54.4,51.8,29.72,ENE,68,1.3,2.2,91,0.00,,,0.00,WUHU216HW,2013-03-28 15:30:00,
2013-03-28 08:35:00,54.7,51.5,29.73,NNE,23,0.4,2.9,89,0.00,,,0.00,WUHU216HW,2013-03-28 15:35:00,
2013-03-28 08:40:00,54.7,51.5,29.73,ESE,113,0.4,3.6,89,0.00,,,0.00,WUHU216HW,2013-03-28 15:40:00,
2013-03-28 08:45:00,55.1,51.8,29.73,ENE,68,1.1,3.6,89,0.00,,,0.00,WUHU216HW,2013-03-28 15:45:00,
2013-03-28 08:50:00,55.1,51.2,29.73,East,90,0.0,2.9,87,0.00,,,0.00,WUHU216HW,2013-03-28 15:50:00,
2013-03-28 08:55:00,55.3,51.8,29.73,SE,135,1.8,4.0,88,0.00,,,0.00,WUHU216HW,2013-03-28 15:55:00,
2013-03-28 09:00:00,55.3,51.8,29.73,ENE,68,1.1,4.0,88,0.00,,,0.00,WUHU216HW,2013-03-28 16:00:00,
2013-03-28 09:05:00,55.6,51.8,29.73,SE,135,2.9,3.8,87,0.00,,,0.00,WUHU216HW,2013-03-28 16:05:00,
2013-03-28 09:10:00,55.8,51.9,29.73,ESE,113,2.5,3.8,87,0.00,,,0.00,WUHU216HW,2013-03-28 16:10:00,
2013-03-28 09:15:00,56.0,52.5,29.73,SE,135,0.4,3.8,88,0.00,,,0.00,WUHU216HW,2013-03-28 16:15:00,
2013-03-28 09:20:00,56.2,52.7,29.73,South,180,2.9,2.9,88,0.00,,,0.00,WUHU216HW,2013-03-28 16:20:00,
2013-03-28 09:25:00,56.5,52.7,29.73,SW,225,2.0,2.9,87,0.00,,,0.00,WUHU216HW,2013-03-28 16:25:00,
2013-03-28 09:30:00,56.9,53.0,29.73,SW,225,0.2,2.2,87,0.00,,,0.00,WUHU216HW,2013-03-28 16:30:00,
2013-03-28 09:35:00,57.1,52.9,29.74,SSW,203,2.7,4.0,86,0.00,,,0.00,WUHU216HW,2013-03-28 16:35:00,
2013-03-28 09:40:00,57.2,53.1,29.74,WSW,248,1.3,4.0,86,0.00,,,0.00,WUHU216HW,2013-03-28 16:40:00,
2013-03-28 09:45:00,57.4,53.6,29.74,ESE,113,0.9,2.9,87,0.00,,,0.00,WUHU216HW,2013-03-28 16:45:00,
2013-03-28 09:50:00,57.8,53.7,29.74,West,270,0.0,1.8,86,0.00,,,0.00,WUHU216HW,2013-03-28 16:50:00,
2013-03-28 09:55:00,57.8,53.7,29.74,SW,225,1.8,4.0,86,0.00,,,0.00,WUHU216HW,2013-03-28 16:55:00,
2013-03-28 10:00:00,58.0,53.8,29.74,SW,225,1.1,4.0,86,0.00,,,0.00,WUHU216HW,2013-03-28 17:00:00,
2013-03-28 10:05:00,58.1,53.3,29.74,WSW,248,2.2,3.8,84,0.00,,,0.00,WUHU216HW,2013-03-28 17:05:00,
2013-03-28 10:10:00,58.7,54.2,29.74,West,270,0.0,3.4,85,0.00,,,0.00,WUHU216HW,2013-03-28 17:10:00,
2013-03-28 10:15:00,59.0,54.5,29.74,SW,225,3.8,4.0,85,0.00,,,0.00,WUHU216HW,2013-03-28 17:15:00,
2013-03-28 10:20:00,59.6,54.7,29.74,SE,135,1.3,4.0,84,0.00,,,0.00,WUHU216HW,2013-03-28 17:20:00,
2013-03-28 10:25:00,60.3,55.2,29.74,WSW,248,1.1,4.3,83,0.00,,,0.00,WUHU216HW,2013-03-28 17:25:00,
2013-03-28 10:30:00,60.5,54.4,29.74,SW,225,1.8,4.3,80,0.00,,,0.00,WUHU216HW,2013-03-28 17:30:00,
2013-03-28 10:35:00,60.5,54.0,29.74,WSW,248,3.1,4.0,79,0.00,,,0.00,WUHU216HW,2013-03-28 17:35:00,
2013-03-28 10:40:00,59.8,53.6,29.74,NW,315,1.6,4.5,80,0.00,,,0.00,WUHU216HW,2013-03-28 17:40:00,
2013-03-28 10:45:00,60.1,54.0,29.75,SW,225,3.1,4.5,80,0.00,,,0.00,WUHU216HW,2013-03-28 17:45:00,
2013-03-28 10:50:00,59.9,53.5,29.75,WNW,293,2.5,4.0,79,0.00,,,0.00,WUHU216HW,2013-03-28 17:50:00,
2013-03-28 10:55:00,59.6,53.8,29.75,WSW,248,4.7,4.7,81,0.00,,,0.00,WUHU216HW,2013-03-28 17:55:00,
2013-03-28 11:00:00,59.9,54.2,29.75,WSW,248,2.2,6.3,81,0.00,,,0.00,WUHU216HW,2013-03-28 18:00:00,
2013-03-28 11:05:00,60.1,54.0,29.75,SW,225,3.6,7.2,80,0.00,,,0.00,WUHU216HW,2013-03-28 18:05:00,
2013-03-28 11:10:00,60.1,54.0,29.75,South,180,2.7,7.2,80,0.00,,,0.00,WUHU216HW,2013-03-28 18:10:00,
2013-03-28 11:15:00,60.1,54.0,29.75,West,270,2.9,5.4,80,0.00,,,0.00,WUHU216HW,2013-03-28 18:15:00,
2013-03-28 11:20:00,60.5,54.0,29.74,SSW,203,2.7,5.4,79,0.00,,,0.00,WUHU216HW,2013-03-28 18:20:00,
2013-03-28 11:25:00,60.8,54.4,29.75,SSW,203,0.4,4.5,79,0.00,,,0.00,WUHU216HW,2013-03-28 18:25:00,
2013-03-28 11:30:00,61.2,54.7,29.74,NW,315,0.0,4.5,79,0.00,,,0.00,WUHU216HW,2013-03-28 18:30:00,
2013-03-28 11:35:00,61.4,54.1,29.74,WSW,248,2.0,4.5,77,0.00,,,0.00,WUHU216HW,2013-03-28 18:35:00,
2013-03-28 11:40:00,61.6,54.3,29.74,SW,225,2.7,5.1,77,0.00,,,0.00,WUHU216HW,2013-03-28 18:40:00,
2013-03-28 11:45:00,61.6,54.3,29.73,NW,315,2.2,5.1,77,0.00,,,0.00,WUHU216HW,2013-03-28 18:45:00,
2013-03-28 11:50:00,61.4,54.1,29.73,NW,315,2.0,3.4,77,0.00,,,0.00,WUHU216HW,2013-03-28 18:50:00,
2013-03-28 11:55:00,61.7,54.8,29.73,South,180,2.5,4.0,78,0.00,,,0.00,WUHU216HW,2013-03-28 18:55:00,
2013-03-28 12:00:00,62.5,55.4,29.73,South,180,4.0,4.0,78,0.00,,,0.00,WUHU216HW,2013-03-28 19:00:00,
2013-03-28 12:05:00,63.0,55.6,29.73,SSW,203,3.4,6.0,77,0.00,,,0.00,WUHU216HW,2013-03-28 19:05:00,
2013-03-28 12:10:00,63.4,55.6,29.73,SW,225,0.9,6.0,76,0.00,,,0.00,WUHU216HW,2013-03-28 19:10:00,
2013-03-28 12:15:00,63.4,55.3,29.73,WSW,248,4.0,4.0,75,0.00,,,0.00,WUHU216HW,2013-03-28 19:15:00,
2013-03-28 12:20:00,63.0,55.3,29.72,SSW,203,1.8,4.0,76,0.00,,,0.00,WUHU216HW,2013-03-28 19:20:00,
2013-03-28 12:25:00,63.2,55.4,29.73,SW,225,3.8,4.9,76,0.00,,,0.00,WUHU216HW,2013-03-28 19:25:00,
2013-03-28 12:30:00,63.2,55.1,29.73,West,270,5.8,6.5,75,0.00,,,0.00,WUHU216HW,2013-03-28 19:30:00,
2013-03-28 12:35:00,63.4,55.3,29.73,SW,225,6.0,6.5,75,0.00,,,0.00,WUHU216HW,2013-03-28 19:35:00,
2013-03-28 12:40:00,63.2,55.1,29.72,WSW,248,3.4,7.6,75,0.00,,,0.00,WUHU216HW,2013-03-28 19:40:00,
2013-03-28 12:45:00,63.0,55.3,29.72,SW,225,1.3,7.6,76,0.00,,,0.00,WUHU216HW,2013-03-28 19:45:00,
2013-03-28 12:50:00,63.2,55.4,29.72,WSW,248,5.4,6.3,76,0.00,,,0.00,WUHU216HW,2013-03-28 19:50:00,
2013-03-28 12:55:00,63.2,55.1,29.72,WSW,248,3.4,6.0,75,0.00,,,0.00,WUHU216HW,2013-03-28 19:55:00,
2013-03-28 13:00:00,63.0,55.3,29.73,SW,225,6.3,6.3,76,0.00,,,0.00,WUHU216HW,2013-03-28 20:00:00,
2013-03-28 13:05:00,62.8,54.7,29.73,WSW,248,2.5,6.3,75,0.00,,,0.00,WUHU216HW,2013-03-28 20:05:00,
2013-03-28 13:10:00,62.6,54.5,29.73,WSW,248,6.3,7.2,75,0.00,,,0.00,WUHU216HW,2013-03-28 20:10:00,
2013-03-28 13:15:00,62.8,55.1,29.73,WSW,248,2.5,7.6,76,0.00,,,0.00,WUHU216HW,2013-03-28 20:15:00,
2013-03-28 13:20:00,62.3,54.2,29.73,SW,225,7.2,7.6,75,0.00,,,0.00,WUHU216HW,2013-03-28 20:20:00,
2013-03-28 13:25:00,61.9,53.9,29.73,WSW,248,2.5,8.5,75,0.00,,,0.00,WUHU216HW,2013-03-28 20:25:00,
2013-03-28 13:30:00,61.6,53.9,29.73,North,0,1.8,8.5,76,0.00,,,0.00,WUHU216HW,2013-03-28 20:30:00,
2013-03-28 13:35:00,61.0,53.8,29.73,WSW,248,5.8,7.6,77,0.00,,,0.00,WUHU216HW,2013-03-28 20:35:00,
2013-03-28 13:40:00,60.8,53.6,29.73,WSW,248,2.0,6.9,77,0.00,,,0.00,WUHU216HW,2013-03-28 20:40:00,
2013-03-28 13:45:00,60.5,53.6,29.73,WSW,248,2.9,6.9,78,0.00,,,0.00,WUHU216HW,2013-03-28 20:45:00,
2013-03-28 13:50:00,60.7,54.2,29.73,West,270,1.1,6.0,79,0.00,,,0.00,WUHU216HW,2013-03-28 20:50:00,
2013-03-28 13:55:00,60.7,53.8,29.73,WSW,248,3.6,7.6,78,0.00,,,0.00,WUHU216HW,2013-03-28 20:55:00,
2013-03-28 14:00:00,60.7,53.8,29.72,West,270,6.3,7.6,78,0.00,,,0.00,WUHU216HW,2013-03-28 21:00:00,
2013-03-28 14:05:00,60.7,53.8,29.72,NW,315,1.8,6.3,78,0.00,,,0.00,WUHU216HW,2013-03-28 21:05:00,
2013-03-28 14:10:00,61.0,54.2,29.72,SW,225,3.6,7.6,78,0.00,,,0.00,WUHU216HW,2013-03-28 21:10:00,
2013-03-28 14:15:00,61.6,54.6,29.72,NW,315,2.5,7.6,78,0.00,,,0.00,WUHU216HW,2013-03-28 21:15:00,
2013-03-28 14:20:00,61.4,54.1,29.71,SW,225,2.9,6.9,77,0.00,,,0.00,WUHU216HW,2013-03-28 21:20:00,
2013-03-28 14:25:00,60.5,53.3,29.71,WSW,248,1.1,4.3,77,0.00,,,0.00,WUHU216HW,2013-03-28 21:25:00,
2013-03-28 14:30:00,60.3,53.8,29.71,SSE,158,2.5,4.0,79,0.00,,,0.00,WUHU216HW,2013-03-28 21:30:00,
2013-03-28 14:35:00,60.8,54.0,29.71,WSW,248,2.9,7.2,78,0.00,,,0.00,WUHU216HW,2013-03-28 21:35:00,
2013-03-28 14:40:00,60.8,54.0,29.71,SSE,158,4.5,7.2,78,0.00,,,0.00,WUHU216HW,2013-03-28 21:40:00,
2013-03-28 14:45:00,61.2,54.0,29.71,West,270,3.8,6.9,77,0.00,,,0.00,WUHU216HW,2013-03-28 21:45:00,
2013-03-28 14:50:00,61.2,54.0,29.71,WSW,248,3.4,8.9,77,0.00,,,0.00,WUHU216HW,2013-03-28 21:50:00,
2013-03-28 14:55:00,61.4,54.1,29.70,SW,225,2.5,8.9,77,0.00,,,0.00,WUHU216HW,2013-03-28 21:55:00,
2013-03-28 15:00:00,61.4,54.1,29.70,WSW,248,1.1,6.3,77,0.00,,,0.00,WUHU216HW,2013-03-28 22:00:00,
2013-03-28 15:05:00,61.2,54.0,29.71,NW,315,1.8,6.3,77,0.00,,,0.00,WUHU216HW,2013-03-28 22:05:00,
2013-03-28 15:10:00,61.4,54.1,29.71,SW,225,2.2,5.4,77,0.00,,,0.00,WUHU216HW,2013-03-28 22:10:00,
2013-03-28 15:15:00,61.6,54.3,29.71,WSW,248,3.1,6.7,77,0.00,,,0.00,WUHU216HW,2013-03-28 22:15:00,
2013-03-28 15:20:00,61.2,53.7,29.71,West,270,2.7,6.7,76,0.00,,,0.00,WUHU216HW,2013-03-28 22:20:00,
2013-03-28 15:25:00,60.5,54.0,29.71,ENE,68,0.7,4.7,79,0.00,,,0.00,WUHU216HW,2013-03-28 22:25:00,
2013-03-28 15:30:00,60.5,53.6,29.70,West,270,2.5,4.7,78,0.00,,,0.00,WUHU216HW,2013-03-28 22:30:00,
2013-03-28 15:35:00,60.1,53.6,29.70,West,270,2.7,5.4,79,0.00,,,0.00,WUHU216HW,2013-03-28 22:35:00,
2013-03-28 15:40:00,59.6,53.1,29.70,West,270,0.7,5.4,79,0.00,,,0.00,WUHU216HW,2013-03-28 22:40:00,
2013-03-28 15:45:00,59.6,53.5,29.70,WSW,248,2.0,3.4,80,0.00,,,0.00,WUHU216HW,2013-03-28 22:45:00,
2013-03-28 15:50:00,59.4,53.7,29.70,WSW,248,1.8,3.4,81,0.00,,,0.00,WUHU216HW,2013-03-28 22:50:00,
2013-03-28 15:55:00,59.0,53.3,29.70,SW,225,4.7,6.7,81,0.00,,,0.00,WUHU216HW,2013-03-28 22:55:00,
2013-03-28 16:00:00,58.7,53.2,29.70,NNW,338,2.5,6.7,82,0.00,,,0.00,WUHU216HW,2013-03-28 23:00:00,
2013-03-28 16:05:00,58.3,53.2,29.71,West,270,1.6,4.7,83,0.00,,,0.00,WUHU216HW,2013-03-28 23:05:00,
2013-03-28 16:10:00,58.0,52.8,29.71,West,270,1.6,4.0,83,0.00,,,0.00,WUHU216HW,2013-03-28 23:10:00,
2013-03-28 16:15:00,58.1,53.3,29.71,WSW,248,2.5,4.3,84,0.00,,,0.00,WUHU216HW,2013-03-28 23:15:00,
2013-03-28 16:20:00,58.1,53.3,29.71,NW,315,2.2,4.7,84,0.00,,,0.00,WUHU216HW,2013-03-28 23:20:00,
2013-03-28 16:25:00,58.3,53.5,29.70,WNW,293,1.1,4.7,84,0.00,,,0.00,WUHU216HW,2013-03-28 23:25:00,
2013-03-28 16:30:00,58.3,53.2,29.70,WSW,248,1.8,3.8,83,0.00,,,0.00,WUHU216HW,2013-03-28 23:30:00,
2013-03-28 16:35:00,58.1,53.3,29.70,West,270,3.6,3.8,84,0.00,,,0.00,WUHU216HW,2013-03-28 23:35:00,
2013-03-28 16:40:00,57.8,53.3,29.70,WSW,248,3.1,4.5,85,0.00,,,0.00,WUHU216HW,2013-03-28 23:40:00,
2013-03-28 16:45:00,57.6,53.1,29.70,WSW,248,0.7,6.9,85,0.00,,,0.00,WUHU216HW,2013-03-28 23:45:00,
2013-03-28 16:50:00,58.1,53.6,29.70,WSW,248,2.7,6.9,85,0.00,,,0.00,WUHU216HW,2013-03-28 23:50:00,
2013-03-28 16:55:00,58.1,53.6,29.70,WSW,248,3.4,4.9,85,0.00,,,0.00,WUHU216HW,2013-03-28 23:55:00,
2013-03-28 17:00:00,58.0,53.5,29.71,West,270,4.0,5.4,85,0.00,,,0.00,WUHU216HW,2013-03-29 00:00:00,
2013-03-28 17:05:00,57.8,53.7,29.70,WNW,293,3.4,5.4,86,0.00,,,0.00,WUHU216HW,2013-03-29 00:05:00,
2013-03-28 17:10:00,57.8,53.7,29.70,WNW,293,1.1,5.1,86,0.00,,,0.00,WUHU216HW,2013-03-29 00:10:00,
2013-03-28 17:15:00,57.6,53.5,29.70,West,270,1.8,4.3,86,0.00,,,0.00,WUHU216HW,2013-03-29 00:15:00,
2013-03-28 17:20:00,57.4,53.3,29.70,WNW,293,3.1,4.3,86,0.00,,,0.00,WUHU216HW,2013-03-29 00:20:00,
2013-03-28 17:25:00,57.2,53.1,29.70,SW,225,2.5,4.0,86,0.00,,,0.00,WUHU216HW,2013-03-29 00:25:00,
2013-03-28 17:30:00,57.2,53.1,29.69,West,270,1.8,4.9,86,0.00,,,0.00,WUHU216HW,2013-03-29 00:30:00,
2013-03-28 17:35:00,57.1,52.9,29.69,WNW,293,3.4,4.9,86,0.00,,,0.00,WUHU216HW,2013-03-29 00:35:00,
2013-03-28 17:40:00,57.1,52.9,29.69,WSW,248,1.8,3.4,86,0.00,,,0.00,WUHU216HW,2013-03-29 00:40:00,
2013-03-28 17:45:00,57.1,52.9,29.68,West,270,2.5,3.4,86,0.00,,,0.00,WUHU216HW,2013-03-29 00:45:00,
2013-03-28 17:50:00,57.2,53.1,29.68,SSW,203,1.1,2.9,86,0.00,,,0.00,WUHU216HW,2013-03-29 00:50:00,
2013-03-28 17:55:00,57.2,53.1,29.68,WSW,248,1.8,2.9,86,0.00,,,0.00,WUHU216HW,2013-03-29 00:55:00,
2013-03-28 18:00:00,57.2,53.1,29.69,West,270,1.6,3.4,86,0.00,,,0.00,WUHU216HW,2013-03-29 01:00:00,
2013-03-28 18:05:00,57.1,52.9,29.69,West,270,1.8,3.4,86,0.00,,,0.00,WUHU216HW,2013-03-29 01:05:00,
2013-03-28 18:10:00,56.9,53.0,29.69,West,270,2.9,5.4,87,0.00,,,0.00,WUHU216HW,2013-03-29 01:10:00,
2013-03-28 18:15:00,56.9,53.0,29.69,North,0,0.7,5.4,87,0.00,,,0.00,WUHU216HW,2013-03-29 01:15:00,
2013-03-28 18:20:00,56.9,53.0,29.69,NW,315,0.9,4.0,87,0.00,,,0.00,WUHU216HW,2013-03-29 01:20:00,
2013-03-28 18:25:00,57.1,53.2,29.70,WSW,248,3.4,3.6,87,0.00,,,0.00,WUHU216HW,2013-03-29 01:25:00,
2013-03-28 18:30:00,57.1,52.9,29.69,NNW,338,1.3,3.6,86,0.00,,,0.00,WUHU216HW,2013-03-29 01:30:00,
2013-03-28 18:35:00,57.2,53.1,29.69,South,180,0.2,3.4,86,0.00,,,0.00,WUHU216HW,2013-03-29 01:35:00,
2013-03-28 18:40:00,57.6,53.7,29.68,NE,45,1.8,2.5,87,0.00,,,0.00,WUHU216HW,2013-03-29 01:40:00,
2013-03-28 18:45:00,57.8,53.9,29.69,WSW,248,1.8,3.4,87,0.00,,,0.00,WUHU216HW,2013-03-29 01:45:00,
2013-03-28 18:50:00,58.1,54.3,29.70,SW,225,1.1,3.4,87,0.00,,,0.00,WUHU216HW,2013-03-29 01:50:00,
2013-03-28 18:55:00,58.3,54.2,29.69,NE,45,0.7,2.5,86,0.00,,,0.00,WUHU216HW,2013-03-29 01:55:00,
2013-03-28 19:00:00,58.3,54.2,29.69,ESE,113,1.8,2.5,86,0.00,,,0.00,WUHU216HW,2013-03-29 02:00:00,
2013-03-28 19:05:00,58.5,54.0,29.69,ESE,113,2.5,2.5,85,0.00,,,0.00,WUHU216HW,2013-03-29 02:05:00,
2013-03-28 19:10:00,58.3,53.8,29.69,SE,135,0.4,2.7,85,0.00,,,0.00,WUHU216HW,2013-03-29 02:10:00,
2013-03-28 19:15:00,58.3,53.8,29.69,WSW,248,0.0,2.7,85,0.00,,,0.00,WUHU216HW,2013-03-29 02:15:00,
2013-03-28 19:20:00,58.1,53.6,29.70,WSW,248,3.1,3.1,85,0.00,,,0.00,WUHU216HW,2013-03-29 02:20:00,
2013-03-28 19:25:00,58.0,53.8,29.70,West,270,2.5,4.9,86,0.00,,,0.00,WUHU216HW,2013-03-29 02:25:00,
2013-03-28 19:30:00,57.4,53.6,29.69,WNW,293,1.6,4.9,87,0.00,,,0.00,WUHU216HW,2013-03-29 02:30:00,
2013-03-28 19:35:00,56.9,53.0,29.70,SW,225,1.1,3.6,87,0.00,,,0.00,WUHU216HW,2013-03-29 02:35:00,
2013-03-28 19:40:00,56.7,53.2,29.70,West,270,1.6,3.6,88,0.00,,,0.00,WUHU216HW,2013-03-29 02:40:00,
2013-03-28 19:45:00,56.5,53.0,29.70,NW,315,1.8,3.4,88,0.00,,,0.00,WUHU216HW,2013-03-29 02:45:00,
2013-03-28 19:50:00,56.5,53.3,29.70,WSW,248,2.5,2.9,89,0.00,,,0.00,WUHU216HW,2013-03-29 02:50:00,
2013-03-28 19:55:00,56.5,53.3,29.70,NW,315,1.6,2.9,89,0.00,,,0.00,WUHU216HW,2013-03-29 02:55:00,
2013-03-28 20:00:00,56.3,53.1,29.70,North,0,0.7,3.1,89,0.00,,,0.00,WUHU216HW,2013-03-29 03:00:00,
2013-03-28 20:05:00,56.3,53.1,29.70,WSW,248,1.1,3.4,89,0.00,,,0.00,WUHU216HW,2013-03-29 03:05:00,
2013-03-28 20:10:00,56.2,52.9,29.70,WSW,248,1.1,3.4,89,0.00,,,0.00,WUHU216HW,2013-03-29 03:10:00,
2013-03-28 20:15:00,56.0,52.7,29.71,WSW,248,1.6,3.6,89,0.00,,,0.00,WUHU216HW,2013-03-29 03:15:00,
2013-03-28 20:20:00,56.0,52.7,29.71,SW,225,2.2,3.6,89,0.00,,,0.00,WUHU216HW,2013-03-29 03:20:00,
2013-03-28 20:25:00,56.0,53.1,29.71,WSW,248,1.1,2.2,90,0.00,,,0.00,WUHU216HW,2013-03-29 03:25:00,
2013-03-28 20:30:00,56.2,53.3,29.70,West,270,0.7,2.2,90,0.00,,,0.00,WUHU216HW,2013-03-29 03:30:00,
2013-03-28 20:35:00,56.0,53.1,29.70,NW,315,1.1,2.2,90,0.00,,,0.00,WUHU216HW,2013-03-29 03:35:00,
2013-03-28 20:40:00,56.2,53.3,29.70,NW,315,0.4,1.8,90,0.00,,,0.00,WUHU216HW,2013-03-29 03:40:00,
2013-03-28 20:45:00,56.2,52.9,29.70,WNW,293,0.0,1.8,89,0.00,,,0.00,WUHU216HW,2013-03-29 03:45:00,
2013-03-28 20:50:00,56.2,52.9,29.70,WNW,293,0.2,1.8,89,0.00,,,0.00,WUHU216HW,2013-03-29 03:50:00,
2013-03-28 20:55:00,56.2,52.9,29.70,NNW,338,1.3,1.8,89,0.00,,,0.00,WUHU216HW,2013-03-29 03:55:00,
2013-03-28 21:00:00,56.2,52.9,29.70,NNW,338,0.2,1.8,89,0.00,,,0.00,WUHU216HW,2013-03-29 04:00:00,
2013-03-28 21:05:00,56.0,52.7,29.70,North,0,0.4,3.1,89,0.00,,,0.00,WUHU216HW,2013-03-29 04:05:00,
2013-03-28 21:10:00,55.8,52.6,29.70,East,90,1.8,3.1,89,0.00,,,0.00,WUHU216HW,2013-03-29 04:10:00,
2013-03-28 21:15:00,55.8,52.6,29.71,South,180,0.9,1.8,89,0.00,,,0.00,WUHU216HW,2013-03-29 04:15:00,
2013-03-28 21:20:00,55.8,52.6,29.71,ESE,113,0.0,1.8,89,0.00,,,0.00,WUHU216HW,2013-03-29 04:20:00,
2013-03-28 21:25:00,55.6,52.4,29.71,East,90,0.7,1.8,89,0.00,,,0.00,WUHU216HW,2013-03-29 04:25:00,
2013-03-28 21:30:00,55.6,52.4,29.71,East,90,1.1,1.8,89,0.00,,,0.00,WUHU216HW,2013-03-29 04:30:00,
2013-03-28 21:35:00,55.4,52.2,29.71,ENE,68,0.0,1.8,89,0.00,,,0.00,WUHU216HW,2013-03-29 04:35:00,
2013-03-28 21:40:00,55.4,52.2,29.72,ENE,68,0.0,1.3,89,0.00,,,0.00,WUHU216HW,2013-03-29 04:40:00,
2013-03-28 21:41:00,55.4,52.2,29.72,ENE,68,0.0,1.3,89,0.00,,,0.00,WUHU216HW,2013-03-29 04:41:00,
2013-03-28 21:42:00,55.4,52.2,29.72,ENE,68,0.0,1.1,89,0.00,,,0.00,WUHU216HW,2013-03-29 04:42:00,
2013-03-28 21:43:00,55.4,52.2,29.72,ENE,68,0.0,0.7,89,0.00,,,0.00,WUHU216HW,2013-03-29 04:43:00,
2013-03-28 21:44:00,55.4,52.2,29.72,ENE,68,0.0,0.0,89,0.00,,,0.00,WUHU216HW,2013-03-29 04:44:00,
2013-03-28 21:45:00,55.4,52.2,29.72,ENE,68,0.0,0.0,89,0.00,,,0.00,WUHU216HW,2013-03-29 04:45:00,
2013-03-28 21:46:00,55.4,52.2,29.72,ENE,68,0.0,0.0,89,0.00,,,0.00,WUHU216HW,2013-03-29 04:46:00,
2013-03-28 21:47:00,55.4,52.2,29.72,ENE,68,0.0,0.0,89,0.00,,,0.00,WUHU216HW,2013-03-29 04:47:00,
2013-03-28 21:48:00,55.4,52.2,29.72,ENE,68,0.0,0.0,89,0.00,,,0.00,WUHU216HW,2013-03-29 04:48:00,
2013-03-28 21:49:00,55.3,52.0,29.72,ENE,68,0.0,0.0,89,0.00,,,0.00,WUHU216HW,2013-03-29 04:49:00,
2013-03-28 21:50:00,55.3,52.0,29.72,ENE,68,0.0,0.0,89,0.00,,,0.00,WUHU216HW,2013-03-29 04:50:00,
2013-03-28 21:51:00,55.3,52.0,29.72,ENE,68,0.0,0.0,89,0.00,,,0.00,WUHU216HW,2013-03-29 04:51:00,
2013-03-28 21:52:00,55.3,52.0,29.72,ENE,68,0.0,0.0,89,0.00,,,0.00,WUHU216HW,2013-03-29 04:52:00,
2013-03-28 21:53:00,55.3,52.0,29.72,SW,225,0.4,0.7,89,0.00,,,0.00,WUHU216HW,2013-03-29 04:53:00,
2013-03-28 21:54:00,55.3,52.0,29.72,SW,225,0.0,0.7,89,0.00,,,0.00,WUHU216HW,2013-03-29 04:54:00,
2013-03-28 21:55:00,55.1,51.8,29.72,SW,225,0.0,0.7,89,0.00,,,0.00,WUHU216HW,2013-03-29 04:55:00,
2013-03-28 21:56:00,55.1,51.8,29.72,SW,225,0.0,0.7,89,0.00,,,0.00,WUHU216HW,2013-03-29 04:56:00,
2013-03-28 21:57:00,55.1,51.8,29.72,SW,225,0.0,0.7,89,0.00,,,0.00,WUHU216HW,2013-03-29 04:57:00,
2013-03-28 21:58:00,55.1,51.8,29.72,SW,225,0.0,0.7,89,0.00,,,0.00,WUHU216HW,2013-03-29 04:58:00,
2013-03-28 21:59:00,55.1,51.8,29.72,SW,225,0.0,0.7,89,0.00,,,0.00,WUHU216HW,2013-03-29 04:59:00,
2013-03-28 22:00:00,55.1,51.8,29.72,SW,225,0.0,0.7,89,0.00,,,0.00,WUHU216HW,2013-03-29 05:00:00,
2013-03-28 22:01:00,55.1,51.8,29.72,SW,225,0.0,0.7,89,0.00,,,0.00,WUHU216HW,2013-03-29 05:01:00,
2013-03-28 22:02:00,55.1,51.8,29.72,SW,225,0.0,0.7,89,0.00,,,0.00,WUHU216HW,2013-03-29 05:02:00,
2013-03-28 22:03:00,55.1,51.8,29.72,SW,225,0.0,0.4,89,0.00,,,0.00,WUHU216HW,2013-03-29 05:03:00,
2013-03-28 22:04:00,55.1,51.8,29.72,SW,225,0.0,0.0,89,0.00,,,0.00,WUHU216HW,2013-03-29 05:04:00,
2013-03-28 22:05:00,55.1,51.8,29.73,SW,225,0.0,0.0,89,0.00,,,0.00,WUHU216HW,2013-03-29 05:05:00,
2013-03-28 22:06:00,55.1,51.8,29.72,SW,225,0.0,0.0,89,0.00,,,0.00,WUHU216HW,2013-03-29 05:06:00,
2013-03-28 22:07:00,54.9,51.7,29.72,NNE,23,0.0,0.0,89,0.00,,,0.00,WUHU216HW,2013-03-29 05:07:00,
2013-03-28 22:08:00,54.9,51.7,29.72,NNE,23,0.4,0.4,89,0.00,,,0.00,WUHU216HW,2013-03-29 05:08:00,
2013-03-28 22:09:00,54.9,51.7,29.72,North,0,1.3,1.3,89,0.00,,,0.00,WUHU216HW,2013-03-29 05:09:00,
2013-03-28 22:10:00,54.9,51.7,29.72,North,0,0.9,1.3,89,0.00,,,0.00,WUHU216HW,2013-03-29 05:10:00,
2013-03-28 22:11:00,54.9,51.7,29.72,North,0,0.0,1.3,89,0.00,,,0.00,WUHU216HW,2013-03-29 05:11:00,
2013-03-28 22:12:00,54.9,51.7,29.72,NNE,23,0.4,1.3,89,0.00,,,0.00,WUHU216HW,2013-03-29 05:12:00,
2013-03-28 22:13:00,54.9,51.7,29.72,ENE,68,0.4,1.3,89,0.00,,,0.00,WUHU216HW,2013-03-29 05:13:00,
2013-03-28 22:14:00,54.9,51.7,29.72,ENE,68,0.0,1.3,89,0.00,,,0.00,WUHU216HW,2013-03-29 05:14:00,
2013-03-28 22:15:00,54.9,51.7,29.72,ENE,68,0.0,1.3,89,0.00,,,0.00,WUHU216HW,2013-03-29 05:15:00,
2013-03-28 22:16:00,54.9,51.7,29.72,ENE,68,0.4,1.3,89,0.00,,,0.00,WUHU216HW,2013-03-29 05:16:00,
2013-03-28 22:17:00,54.7,51.5,29.73,ENE,68,0.4,1.3,89,0.00,,,0.00,WUHU216HW,2013-03-29 05:17:00,
2013-03-28 22:18:00,54.7,51.5,29.73,ENE,68,0.0,1.3,89,0.00,,,0.00,WUHU216HW,2013-03-29 05:18:00,
2013-03-28 22:19:00,54.7,51.5,29.72,ENE,68,0.7,1.3,89,0.00,,,0.00,WUHU216HW,2013-03-29 05:19:00,
2013-03-28 22:20:00,54.7,51.5,29.72,ENE,68,0.0,0.9,89,0.00,,,0.00,WUHU216HW,2013-03-29 05:20:00,
2013-03-28 22:21:00,54.7,51.8,29.72,ENE,68,0.9,0.9,90,0.00,,,0.00,WUHU216HW,2013-03-29 05:21:00,
2013-03-28 22:22:00,54.7,51.8,29.72,East,90,0.9,0.9,90,0.00,,,0.00,WUHU216HW,2013-03-29 05:22:00,
2013-03-28 22:23:00,54.7,51.8,29.72,East,90,0.4,1.1,90,0.00,,,0.00,WUHU216HW,2013-03-29 05:23:00,
2013-03-28 22:24:00,54.7,51.8,29.72,East,90,0.9,1.1,90,0.00,,,0.00,WUHU216HW,2013-03-29 05:24:00,
2013-03-28 22:25:00,54.5,51.7,29.72,East,90,0.9,1.1,90,0.00,,,0.00,WUHU216HW,2013-03-29 05:25:00,
2013-03-28 22:26:00,54.7,51.8,29.72,ENE,68,0.9,1.1,90,0.00,,,0.00,WUHU216HW,2013-03-29 05:26:00,
2013-03-28 22:27:00,54.5,51.7,29.72,NE,45,0.9,1.1,90,0.00,,,0.00,WUHU216HW,2013-03-29 05:27:00,
2013-03-28 22:28:00,54.5,51.7,29.72,NNE,23,1.1,1.1,90,0.00,,,0.00,WUHU216HW,2013-03-29 05:28:00,
2013-03-28 22:29:00,54.5,51.7,29.72,NNE,23,1.6,1.6,90,0.00,,,0.00,WUHU216HW,2013-03-29 05:29:00,
2013-03-28 22:30:00,54.5,51.7,29.72,NNE,23,0.7,1.6,90,0.00,,,0.00,WUHU216HW,2013-03-29 05:30:00,
2013-03-28 22:31:00,54.5,51.7,29.72,NNE,23,0.4,1.6,90,0.00,,,0.00,WUHU216HW,2013-03-29 05:31:00,
2013-03-28 22:32:00,54.5,51.7,29.72,NNE,23,0.0,1.6,90,0.00,,,0.00,WUHU216HW,2013-03-29 05:32:00,
2013-03-28 22:33:00,54.5,51.7,29.72,NNE,23,0.0,1.6,90,0.00,,,0.00,WUHU216HW,2013-03-29 05:33:00,
2013-03-28 22:34:00,54.5,51.7,29.72,NNE,23,0.0,1.6,90,0.00,,,0.00,WUHU216HW,2013-03-29 05:34:00,
2013-03-28 22:35:00,54.5,51.3,29.72,NNE,23,0.0,1.6,89,0.00,,,0.00,WUHU216HW,2013-03-29 05:35:00,
2013-03-28 22:36:00,54.5,51.3,29.72,NNE,23,0.0,1.6,89,0.00,,,0.00,WUHU216HW,2013-03-29 05:36:00,
2013-03-28 22:37:00,54.5,51.3,29.72,NNE,23,0.0,1.6,89,0.00,,,0.00,WUHU216HW,2013-03-29 05:37:00,
2013-03-28 22:38:00,54.5,51.3,29.72,NNE,23,0.0,1.6,89,0.00,,,0.00,WUHU216HW,2013-03-29 05:38:00,
2013-03-28 22:39:00,54.4,51.2,29.72,NNE,23,0.0,1.6,89,0.00,,,0.00,WUHU216HW,2013-03-29 05:39:00,
2013-03-28 22:40:00,54.5,51.3,29.72,NNE,23,0.0,0.7,89,0.00,,,0.00,WUHU216HW,2013-03-29 05:40:00,
2013-03-28 22:41:00,54.5,51.3,29.72,NNE,23,0.0,0.7,89,0.00,,,0.00,WUHU216HW,2013-03-29 05:41:00,
2013-03-28 22:42:00,54.4,51.2,29.73,NNE,23,0.0,0.0,89,0.00,,,0.00,WUHU216HW,2013-03-29 05:42:00,
2013-03-28 22:43:00,54.4,51.2,29.72,NNE,23,0.0,0.0,89,0.00,,,0.00,WUHU216HW,2013-03-29 05:43:00,
2013-03-28 22:44:00,54.4,51.2,29.73,NNE,23,0.0,0.0,89,0.00,,,0.00,WUHU216HW,2013-03-29 05:44:00,
2013-03-28 22:45:00,54.4,51.2,29.73,NNE,23,0.0,0.0,89,0.00,,,0.00,WUHU216HW,2013-03-29 05:45:00,
2013-03-28 22:46:00,54.4,51.2,29.73,NNE,23,0.0,0.0,89,0.00,,,0.00,WUHU216HW,2013-03-29 05:46:00,
2013-03-28 22:47:00,54.4,51.2,29.73,NNE,23,0.0,0.0,89,0.00,,,0.00,WUHU216HW,2013-03-29 05:47:00,
2013-03-28 22:48:00,54.4,51.2,29.73,NNE,23,0.0,0.0,89,0.00,,,0.00,WUHU216HW,2013-03-29 05:48:00,
2013-03-28 22:49:00,54.4,51.2,29.73,NNE,23,0.0,0.0,89,0.00,,,0.00,WUHU216HW,2013-03-29 05:49:00,
2013-03-28 22:50:00,54.4,51.2,29.73,NNE,23,0.0,0.0,89,0.00,,,0.00,WUHU216HW,2013-03-29 05:50:00,
2013-03-28 22:51:00,54.4,51.2,29.73,NNE,23,0.0,0.0,89,0.00,,,0.00,WUHU216HW,2013-03-29 05:51:00,
2013-03-28 22:52:00,54.4,51.2,29.72,NNE,23,0.0,0.0,89,0.00,,,0.00,WUHU216HW,2013-03-29 05:52:00,
2013-03-28 22:53:00,54.4,51.2,29.72,NNE,23,0.0,0.0,89,0.00,,,0.00,WUHU216HW,2013-03-29 05:53:00,
2013-03-28 22:54:00,54.2,51.0,29.73,NNE,23,0.0,0.0,89,0.00,,,0.00,WUHU216HW,2013-03-29 05:54:00,
2013-03-28 22:55:00,54.4,51.2,29.72,NNE,23,0.0,0.0,89,0.00,,,0.00,WUHU216HW,2013-03-29 05:55:00,
2013-03-28 22:56:00,54.2,51.0,29.72,NNE,23,0.0,0.0,89,0.00,,,0.00,WUHU216HW,2013-03-29 05:56:00,
2013-03-28 22:57:00,54.2,51.0,29.72,NNE,23,0.0,0.0,89,0.00,,,0.00,WUHU216HW,2013-03-29 05:57:00,
2013-03-28 22:58:00,54.2,51.0,29.72,NNE,23,0.0,0.0,89,0.00,,,0.00,WUHU216HW,2013-03-29 05:58:00,
2013-03-28 22:59:00,54.2,51.0,29.72,NNE,23,0.0,0.0,89,0.00,,,0.00,WUHU216HW,2013-03-29 05:59:00,
2013-03-28 23:00:00,54.0,50.9,29.72,NNE,23,0.0,0.0,89,0.00,,,0.00,WUHU216HW,2013-03-29 06:00:00,
2013-03-28 23:01:00,54.0,50.9,29.72,NNE,23,0.0,0.0,89,0.00,,,0.00,WUHU216HW,2013-03-29 06:01:00,
2013-03-28 23:02:00,54.0,50.9,29.72,NNE,23,0.0,0.0,89,0.00,,,0.00,WUHU216HW,2013-03-29 06:02:00,
2013-03-28 23:03:00,54.0,50.9,29.72,NNE,23,0.4,0.4,89,0.00,,,0.00,WUHU216HW,2013-03-29 06:03:00,
2013-03-28 23:04:00,54.0,50.9,29.72,NNE,23,0.4,0.4,89,0.00,,,0.00,WUHU216HW,2013-03-29 06:04:00,
2013-03-28 23:05:00,53.8,50.7,29.72,NNE,23,0.2,0.4,89,0.00,,,0.00,WUHU216HW,2013-03-29 06:05:00,
2013-03-28 23:06:00,53.8,50.7,29.72,NNE,23,0.0,0.4,89,0.00,,,0.00,WUHU216HW,2013-03-29 06:06:00,
2013-03-28 23:07:00,53.8,50.7,29.72,NNE,23,0.0,0.4,89,0.00,,,0.00,WUHU216HW,2013-03-29 06:07:00,
2013-03-28 23:08:00,53.8,50.7,29.72,ENE,68,0.7,0.7,89,0.00,,,0.00,WUHU216HW,2013-03-29 06:08:00,
2013-03-28 23:09:00,53.8,50.7,29.72,ENE,68,0.9,1.1,89,0.00,,,0.00,WUHU216HW,2013-03-29 06:09:00,
2013-03-28 23:10:00,53.8,50.7,29.72,ENE,68,0.2,1.1,89,0.00,,,0.00,WUHU216HW,2013-03-29 06:10:00,
2013-03-28 23:11:00,53.8,50.9,29.72,NE,45,0.7,1.1,90,0.00,,,0.00,WUHU216HW,2013-03-29 06:11:00,
2013-03-28 23:12:00,54.0,51.1,29.72,ENE,68,0.7,1.1,90,0.00,,,0.00,WUHU216HW,2013-03-29 06:12:00,
2013-03-28 23:13:00,54.0,51.1,29.72,NE,45,0.7,1.1,90,0.00,,,0.00,WUHU216HW,2013-03-29 06:13:00,
2013-03-28 23:14:00,54.0,51.1,29.72,NE,45,1.1,1.1,90,0.00,,,0.00,WUHU216HW,2013-03-29 06:14:00,
2013-03-28 23:15:00,54.0,51.1,29.72,ENE,68,1.1,1.1,90,0.00,,,0.00,WUHU216HW,2013-03-29 06:15:00,
2013-03-28 23:16:00,54.0,51.1,29.72,ENE,68,1.6,1.8,90,0.00,,,0.00,WUHU216HW,2013-03-29 06:16:00,
2013-03-28 23:17:00,53.8,50.9,29.72,ENE,68,1.3,1.8,90,0.00,,,0.00,WUHU216HW,2013-03-29 06:17:00,
2013-03-28 23:18:00,54.0,51.1,29.72,ENE,68,1.8,1.8,90,0.00,,,0.00,WUHU216HW,2013-03-29 06:18:00,
2013-03-28 23:19:00,54.0,51.1,29.72,ENE,68,0.9,1.8,90,0.00,,,0.00,WUHU216HW,2013-03-29 06:19:00,
2013-03-28 23:20:00,54.0,51.1,29.72,ENE,68,1.6,1.8,90,0.00,,,0.00,WUHU216HW,2013-03-29 06:20:00,
2013-03-28 23:21:00,54.0,51.1,29.72,ENE,68,1.8,2.2,90,0.00,,,0.00,WUHU216HW,2013-03-29 06:21:00,
2013-03-28 23:22:00,54.0,51.1,29.71,ENE,68,1.3,2.2,90,0.00,,,0.00,WUHU216HW,2013-03-29 06:22:00,
2013-03-28 23:23:00,54.0,51.1,29.71,NE,45,1.6,2.2,90,0.00,,,0.00,WUHU216HW,2013-03-29 06:23:00,
2013-03-28 23:24:00,54.0,51.1,29.71,ENE,68,1.8,2.2,90,0.00,,,0.00,WUHU216HW,2013-03-29 06:24:00,
2013-03-28 23:25:00,54.0,51.1,29.71,ENE,68,2.2,2.2,90,0.00,,,0.00,WUHU216HW,2013-03-29 06:25:00,
2013-03-28 23:26:00,54.0,51.1,29.71,East,90,2.5,2.5,90,0.00,,,0.00,WUHU216HW,2013-03-29 06:26:00,
2013-03-28 23:27:00,54.0,51.1,29.71,ENE,68,1.3,2.5,90,0.00,,,0.00,WUHU216HW,2013-03-29 06:27:00,
2013-03-28 23:28:00,54.0,51.1,29.71,ENE,68,1.1,2.5,90,0.00,,,0.00,WUHU216HW,2013-03-29 06:28:00,
2013-03-28 23:29:00,53.8,50.9,29.71,ESE,113,1.1,2.5,90,0.00,,,0.00,WUHU216HW,2013-03-29 06:29:00,
2013-03-28 23:30:00,53.8,50.9,29.71,ESE,113,1.1,2.5,90,0.00,,,0.00,WUHU216HW,2013-03-29 06:30:00,
2013-03-28 23:31:00,53.8,50.9,29.71,ESE,113,1.3,2.5,90,0.00,,,0.00,WUHU216HW,2013-03-29 06:31:00,
2013-03-28 23:32:00,53.8,50.9,29.71,East,90,1.1,2.5,90,0.00,,,0.00,WUHU216HW,2013-03-29 06:32:00,
2013-03-28 23:33:00,53.8,50.9,29.72,ENE,68,1.6,2.5,90,0.00,,,0.00,WUHU216HW,2013-03-29 06:33:00,
2013-03-28 23:34:00,53.8,50.9,29.71,East,90,1.1,2.5,90,0.00,,,0.00,WUHU216HW,2013-03-29 06:34:00,
2013-03-28 23:35:00,53.8,50.9,29.72,ESE,113,1.1,2.5,90,0.00,,,0.00,WUHU216HW,2013-03-29 06:35:00,
2013-03-28 23:36:00,53.6,50.8,29.72,NE,45,1.8,2.5,90,0.00,,,0.00,WUHU216HW,2013-03-29 06:36:00,
2013-03-28 23:37:00,53.6,50.8,29.72,East,90,1.1,2.0,90,0.00,,,0.00,WUHU216HW,2013-03-29 06:37:00,
2013-03-28 23:38:00,53.6,50.8,29.72,ENE,68,1.8,2.0,90,0.00,,,0.00,WUHU216HW,2013-03-29 06:38:00,
2013-03-28 23:39:00,53.6,50.8,29.72,ENE,68,1.3,2.0,90,0.00,,,0.00,WUHU216HW,2013-03-29 06:39:00,
2013-03-28 23:40:00,53.6,50.8,29.72,East,90,0.7,1.8,90,0.00,,,0.00,WUHU216HW,2013-03-29 06:40:00,
2013-03-28 23:41:00,53.6,50.8,29.72,East,90,0.4,1.8,90,0.00,,,0.00,WUHU216HW,2013-03-29 06:41:00,
2013-03-28 23:42:00,53.6,50.8,29.72,East,90,0.0,1.8,90,0.00,,,0.00,WUHU216HW,2013-03-29 06:42:00,
2013-03-28 23:43:00,53.6,50.8,29.72,East,90,0.0,1.8,90,0.00,,,0.00,WUHU216HW,2013-03-29 06:43:00,
2013-03-28 23:44:00,53.6,50.8,29.72,East,90,0.0,1.8,90,0.00,,,0.00,WUHU216HW,2013-03-29 06:44:00,
2013-03-28 23:45:00,53.6,50.8,29.72,East,90,0.0,1.8,90,0.00,,,0.00,WUHU216HW,2013-03-29 06:45:00,
2013-03-28 23:46:00,53.6,50.8,29.72,East,90,0.0,1.8,90,0.00,,,0.00,WUHU216HW,2013-03-29 06:46:00,
2013-03-28 23:47:00,53.6,50.8,29.72,East,90,0.0,1.8,90,0.00,,,0.00,WUHU216HW,2013-03-29 06:47:00,
2013-03-28 23:48:00,53.6,50.8,29.72,East,90,0.0,1.8,90,0.00,,,0.00,WUHU216HW,2013-03-29 06:48:00,
2013-03-28 23:56:00,53.5,50.6,29.72,ENE,68,0.0,0.0,90,0.00,,,0.00,WUHU216HW,2013-03-29 06:56:00,